�������l�o���
Date,Time,MP-1(��Sv/h),MP-2(��Sv/h),MP-3(��Sv/h),MP-4(��Sv/h),MP-5(��Sv/h),MP-6(��Sv/h),MP-7(��Sv/h),MP-8(��Sv/h),����,����(m/s),���J
2016/12/08,00:00,1.107,1.856,1.223,2.099,1.447,0.575,1.047,0.970,�k�k��,6.2,��
2016/12/08,00:10,1.108,1.857,1.223,2.101,1.447,0.577,1.047,0.969,�k,6.1,��
2016/12/08,00:20,1.109,1.858,1.226,2.098,1.445,0.576,1.047,0.969,�k,5.9,��
2016/12/08,00:30,1.107,1.857,1.223,2.101,1.449,0.576,1.045,0.967,�k�k��,5.7,��
2016/12/08,00:40,1.106,1.855,1.223,2.100,1.446,0.575,1.046,0.967,�k,6.4,��
2016/12/08,00:50,1.105,1.860,1.222,2.100,1.443,0.576,1.046,0.968,�k�k��,6.6,��
2016/12/08,01:00,1.106,1.856,1.223,2.102,1.446,0.575,1.043,0.967,�k�k��,5.9,��
2016/12/08,01:10,1.104,1.854,1.224,2.098,1.444,0.575,1.046,0.969,�k�k��,5.7,��
2016/12/08,01:20,1.106,1.854,1.226,2.099,1.446,0.574,1.048,0.967,�k�k��,6.1,��
2016/12/08,01:30,1.105,1.858,1.223,2.097,1.443,0.576,1.046,0.968,�k�k��,6.6,��
2016/12/08,01:40,1.105,1.857,1.225,2.101,1.446,0.574,1.047,0.967,�k�k��,6.1,��
2016/12/08,01:50,1.107,1.856,1.222,2.101,1.446,0.574,1.044,0.968,�k�k��,6.0,��
2016/12/08,02:00,1.107,1.854,1.225,2.097,1.447,0.574,1.044,0.969,�k�k��,5.6,��
2016/12/08,02:10,1.108,1.855,1.221,2.103,1.443,0.575,1.044,0.967,�k,4.3,��
2016/12/08,02:20,1.105,1.856,1.221,2.097,1.447,0.576,1.045,0.968,�k,4.0,��
2016/12/08,02:30,1.107,1.856,1.224,2.096,1.445,0.576,1.045,0.966,�k�k��,3.3,��
2016/12/08,02:40,1.105,1.854,1.221,2.098,1.445,0.575,1.043,0.968,�k�k��,3.4,��
2016/12/08,02:50,1.107,1.855,1.225,2.102,1.446,0.576,1.044,0.967,�k�k��,4.3,��
2016/12/08,03:00,1.106,1.853,1.223,2.096,1.446,0.576,1.043,0.967,�k�k��,2.3,��
2016/12/08,03:10,1.106,1.853,1.222,2.098,1.443,0.574,1.045,0.969,�k��,2.2,��
2016/12/08,03:20,1.104,1.854,1.223,2.097,1.443,0.575,1.045,0.968,���k��,2.2,��
2016/12/08,03:30,1.107,1.855,1.222,2.096,1.443,0.576,1.045,0.967,��,4.2,��
2016/12/08,03:40,1.107,1.855,1.221,2.098,1.442,0.574,1.044,0.966,��,4.9,��
2016/12/08,03:50,1.104,1.852,1.224,2.098,1.444,0.574,1.044,0.967,��,4.5,��
2016/12/08,04:00,1.106,1.852,1.223,2.098,1.445,0.576,1.045,0.969,��,4.3,��
2016/12/08,04:10,1.106,1.854,1.223,2.098,1.443,0.576,1.043,0.968,���k��,4.1,��
2016/12/08,04:20,1.108,1.856,1.225,2.100,1.445,0.574,1.044,0.969,���k��,5.9,��
2016/12/08,04:30,1.108,1.854,1.223,2.098,1.446,0.574,1.045,0.968,��,6.5,��
2016/12/08,04:40,1.108,1.855,1.223,2.098,1.443,0.575,1.044,0.968,��,5.7,��
2016/12/08,04:50,1.106,1.851,1.224,2.096,1.443,0.576,1.043,0.968,���k��,5.2,��
2016/12/08,05:00,1.108,1.855,1.224,2.099,1.443,0.576,1.045,0.969,���k��,5.1,��
2016/12/08,05:10,1.104,1.856,1.223,2.100,1.445,0.575,1.046,0.968,���k��,7.1,��
2016/12/08,05:20,1.106,1.854,1.222,2.097,1.445,0.576,1.044,0.968,���k��,7.5,��
2016/12/08,05:30,1.106,1.854,1.223,2.101,1.445,0.576,1.045,0.968,��,7.6,��
2016/12/08,05:40,1.104,1.853,1.223,2.097,1.444,0.574,1.045,0.968,���k��,5.6,��
2016/12/08,05:50,1.107,1.854,1.223,2.094,1.446,0.577,1.045,0.966,���k��,5.5,��
2016/12/08,06:00,1.107,1.854,1.223,2.098,1.445,0.575,1.044,0.968,���k��,6.2,��
2016/12/08,06:10,1.105,1.853,1.222,2.096,1.441,0.574,1.045,0.969,���k��,5.5,��
2016/12/08,06:20,1.105,1.852,1.223,2.099,1.443,0.577,1.043,0.969,��,6.6,��
2016/12/08,06:30,1.107,1.852,1.219,2.099,1.445,0.576,1.044,0.966,���k��,4.2,��
2016/12/08,06:40,1.105,1.851,1.221,2.097,1.445,0.574,1.044,0.968,�k�k��,2.0,��
2016/12/08,06:50,1.105,1.854,1.221,2.096,1.443,0.574,1.044,0.968,�k��,2.6,��
2016/12/08,07:00,1.104,1.853,1.222,2.093,1.442,0.573,1.044,0.967,���k��,5.6,��
2016/12/08,07:10,1.105,1.851,1.222,2.096,1.443,0.574,1.045,0.966,���k��,6.9,��
2016/12/08,07:20,1.104,1.852,1.223,2.099,1.444,0.574,1.043,0.966,���k��,5.8,��
2016/12/08,07:30,1.102,1.854,1.219,2.097,1.442,0.576,1.043,0.967,���k��,6.5,��
2016/12/08,07:40,1.107,1.855,1.220,2.096,1.443,0.575,1.043,0.967,�k��,9.2,��
2016/12/08,07:50,1.107,1.853,1.220,2.097,1.441,0.574,1.045,0.968,���k��,7.5,��
2016/12/08,08:00,1.105,1.850,1.219,2.101,1.444,0.574,1.044,0.967,���k��,7.7,��
2016/12/08,08:10,1.107,1.853,1.219,2.098,1.445,0.575,1.046,0.966,���k��,6.5,��
2016/12/08,08:20,1.108,1.851,1.221,2.100,1.442,0.574,1.044,0.967,���k��,4.8,��
2016/12/08,08:30,1.104,1.852,1.222,2.098,1.444,0.574,1.044,0.967,�k��,2.8,��
2016/12/08,08:40,1.105,1.851,1.221,2.101,1.445,0.574,1.042,0.968,�k�k��,4.3,��
2016/12/08,08:50,1.105,1.853,1.219,2.100,1.443,0.574,1.043,0.969,�k��,4.7,��
2016/12/08,09:00,1.106,1.853,1.219,2.103,1.442,0.574,1.044,0.968,�k��,3.6,��
2016/12/08,09:10,1.106,1.855,1.221,2.099,1.445,0.576,1.045,0.968,�k�k��,2.5,��
2016/12/08,09:20,1.108,1.856,1.219,2.100,1.445,0.575,1.046,0.969,�k�k��,3.6,��
2016/12/08,09:30,1.106,1.854,1.220,2.100,1.445,0.575,1.046,0.970,�k�k��,5.3,��
2016/12/08,09:40,1.108,1.855,1.221,2.101,1.447,0.576,1.045,0.970,�k�k��,5.1,��
2016/12/08,09:50,1.103,1.857,1.220,2.102,1.443,0.576,1.045,0.968,�k�k��,4.3,��
2016/12/08,10:00,1.103,1.855,1.220,2.102,1.446,0.578,1.044,0.969,�k�k��,3.8,��
2016/12/08,10:10,1.100,1.850,1.220,2.099,1.447,0.576,1.044,0.968,�k�k��,5.5,��
2016/12/08,10:20,1.100,1.855,1.221,2.100,1.444,0.576,1.044,0.968,�k�k��,4.2,��
2016/12/08,10:30,1.103,1.856,1.220,2.102,1.446,0.576,1.043,0.968,�k,4.2,��
2016/12/08,10:40,1.104,1.856,1.219,2.103,1.445,0.576,1.045,0.968,�k,4.7,��
2016/12/08,10:50,1.107,1.853,1.222,2.104,1.442,0.576,1.045,0.970,�k�k��,6.2,��
2016/12/08,11:00,1.102,1.851,1.221,2.104,1.447,0.576,1.044,0.969,�k�k��,5.2,��
2016/12/08,11:10,1.104,1.852,1.220,2.103,1.445,0.576,1.044,0.970,�k�k��,4.1,��
2016/12/08,11:20,1.102,1.854,1.225,2.099,1.446,0.577,1.042,0.969,�k,4.5,��
2016/12/08,11:30,1.103,1.855,1.224,2.102,1.448,0.575,1.045,0.969,�k,3.4,��
2016/12/08,11:40,1.106,1.859,1.220,2.105,1.450,0.576,1.045,0.970,�k�k��,4.2,��
2016/12/08,11:50,1.105,1.861,1.221,2.104,1.450,0.576,1.043,0.971,�k�k��,3.8,��
2016/12/08,12:00,1.106,1.857,1.221,2.102,1.453,0.578,1.043,0.970,�k�k��,4.2,��
2016/12/08,12:10,1.107,1.859,1.218,2.105,1.451,0.577,1.045,0.970,�k��,4.4,��
2016/12/08,12:20,1.107,1.858,1.219,2.104,1.450,0.577,1.043,0.968,�k�k��,5.1,��
2016/12/08,12:30,1.108,1.860,1.222,2.105,1.451,0.577,1.045,0.968,�k�k��,5.5,��
2016/12/08,12:40,1.108,1.859,1.222,2.103,1.452,0.578,1.044,0.970,�k�k��,6.5,��
2016/12/08,12:50,1.107,1.858,1.222,2.104,1.450,0.578,1.045,0.971,�k�k��,7.2,��
2016/12/08,13:00,1.107,1.858,1.221,2.106,1.449,0.576,1.045,0.970,�k��,6.3,��
2016/12/08,13:10,1.108,1.859,1.217,2.104,1.448,0.577,1.045,0.970,�k�k��,5.3,��
2016/12/08,13:20,1.107,1.858,1.219,2.104,1.451,0.576,1.044,0.967,�k�k��,3.4,��
2016/12/08,13:30,1.108,1.853,1.221,2.103,1.448,0.577,1.044,0.967,�k�k��,5.3,��
2016/12/08,13:40,1.105,1.858,1.223,2.106,1.449,0.576,1.046,0.967,�k�k��,3.8,��
2016/12/08,13:50,1.106,1.856,1.222,2.104,1.446,0.575,1.045,0.967,�k,3.3,��
2016/12/08,14:00,1.106,1.856,1.222,2.105,1.450,0.576,1.047,0.969,�k,3.1,��
2016/12/08,14:10,1.108,1.854,1.220,2.106,1.450,0.575,1.047,0.968,�k,3.3,��
2016/12/08,14:20,1.112,1.855,1.223,2.106,1.446,0.577,1.045,0.971,�k,4.1,��
2016/12/08,14:30,1.112,1.857,1.225,2.105,1.447,0.576,1.046,0.971,�k,3.4,��
2016/12/08,14:40,1.113,1.859,1.225,2.106,1.448,0.577,1.043,0.970,�k,2.9,��
2016/12/08,14:50,1.114,1.859,1.225,2.106,1.450,0.576,1.045,0.970,�k�k��,1.9,��
2016/12/08,15:00,1.111,1.862,1.221,2.105,1.451,0.577,1.049,0.968,�k��,1.7,��
2016/12/08,15:10,1.111,1.859,1.224,2.106,1.453,0.577,1.050,0.968,���k��,3.0,��
2016/12/08,15:20,1.111,1.861,1.221,2.108,1.452,0.575,1.048,0.971,���k��,2.3,��
2016/12/08,15:30,1.113,1.860,1.222,2.105,1.452,0.578,1.050,0.969,���k��,2.0,��
2016/12/08,15:40,1.110,1.859,1.224,2.105,1.448,0.577,1.046,0.970,���k��,1.9,��
2016/12/08,15:50,1.107,1.860,1.223,2.104,1.454,0.575,1.048,0.969,��,4.1,��
2016/12/08,16:00,1.111,1.862,1.224,2.104,1.449,0.574,1.048,0.970,���쐼,5.1,��
2016/12/08,16:10,1.111,1.860,1.224,2.105,1.452,0.577,1.046,0.968,��,3.7,��
2016/12/08,16:20,1.108,1.858,1.222,2.101,1.451,0.575,1.047,0.966,��,2.5,��
2016/12/08,16:30,1.107,1.857,1.221,2.101,1.449,0.576,1.047,0.966,��,4.0,��
2016/12/08,16:40,1.106,1.860,1.220,2.101,1.450,0.574,1.046,0.969,��,5.2,��
2016/12/08,16:50,1.107,1.858,1.223,2.102,1.449,0.576,1.046,0.966,��,6.3,��
2016/12/08,17:00,1.108,1.860,1.221,2.104,1.449,0.575,1.043,0.967,��,6.0,��
2016/12/08,17:10,1.109,1.858,1.224,2.101,1.449,0.574,1.047,0.969,��,6.1,��
2016/12/08,17:20,1.107,1.857,1.221,2.103,1.450,0.575,1.046,0.967,���쐼,4.6,��
2016/12/08,17:30,1.107,1.858,1.220,2.102,1.446,0.573,1.045,0.968,��,4.8,��
2016/12/08,17:40,1.106,1.858,1.221,2.103,1.447,0.575,1.044,0.967,��,6.1,��
2016/12/08,17:50,1.107,1.858,1.221,2.100,1.447,0.575,1.045,0.968,��,5.3,��
2016/12/08,18:00,1.106,1.859,1.221,2.103,1.445,0.576,1.047,0.967,���k��,5.9,��
2016/12/08,18:10,1.106,1.857,1.220,2.101,1.447,0.574,1.044,0.966,���k��,4.9,��
2016/12/08,18:20,1.105,1.857,1.219,2.098,1.447,0.575,1.045,0.966,���k��,4.5,��
2016/12/08,18:30,1.105,1.857,1.219,2.100,1.447,0.573,1.043,0.966,���k��,5.0,��
2016/12/08,18:40,1.104,1.855,1.220,2.101,1.447,0.573,1.045,0.967,���k��,4.9,��
2016/12/08,18:50,1.103,1.857,1.220,2.100,1.448,0.575,1.043,0.967,���k��,5.2,��
2016/12/08,19:00,1.104,1.856,1.220,2.101,1.448,0.574,1.044,0.967,���k��,5.2,��
2016/12/08,19:10,1.102,1.856,1.219,2.103,1.449,0.574,1.044,0.965,���k��,4.8,��
2016/12/08,19:20,1.102,1.858,1.216,2.102,1.445,0.573,1.040,0.966,���k��,4.1,��
2016/12/08,19:30,1.106,1.856,1.219,2.102,1.446,0.575,1.043,0.966,���k��,3.8,��
2016/12/08,19:40,1.104,1.857,1.219,2.100,1.446,0.574,1.042,0.967,���k��,3.5,��
2016/12/08,19:50,1.103,1.856,1.216,2.100,1.447,0.574,1.043,0.966,���k��,3.2,��
2016/12/08,20:00,1.102,1.856,1.220,2.100,1.447,0.574,1.044,0.967,���k��,2.9,��
2016/12/08,20:10,1.103,1.857,1.216,2.100,1.446,0.573,1.043,0.965,���k��,3.2,��
2016/12/08,20:20,1.102,1.855,1.217,2.101,1.449,0.574,1.044,0.966,���k��,3.5,��
2016/12/08,20:30,1.103,1.856,1.219,2.100,1.446,0.574,1.042,0.966,���k��,2.6,��
2016/12/08,20:40,1.103,1.855,1.218,2.096,1.448,0.575,1.042,0.967,�k��,3.1,��
2016/12/08,20:50,1.104,1.857,1.215,2.099,1.446,0.573,1.044,0.966,�k��,3.0,��
2016/12/08,21:00,1.101,1.856,1.218,2.097,1.445,0.573,1.042,0.965,�k��,2.2,��
2016/12/08,21:10,1.101,1.858,1.217,2.099,1.445,0.574,1.044,0.966,�k��,1.9,��
2016/12/08,21:20,1.100,1.859,1.216,2.100,1.445,0.573,1.044,0.967,�k��,2.3,��
2016/12/08,21:30,1.103,1.855,1.216,2.100,1.449,0.574,1.043,0.966,�k��,1.9,��
2016/12/08,21:40,1.104,1.854,1.219,2.096,1.445,0.572,1.044,0.966,�k�k��,1.7,��
2016/12/08,21:50,1.101,1.856,1.218,2.098,1.448,0.574,1.042,0.966,�k��,2.3,��
2016/12/08,22:00,1.103,1.855,1.216,2.099,1.446,0.574,1.043,0.967,�k�k��,2.3,��
2016/12/08,22:10,1.103,1.857,1.217,2.095,1.445,0.573,1.042,0.968,�k��,2.8,��
2016/12/08,22:20,1.101,1.857,1.215,2.102,1.447,0.574,1.041,0.966,�k��,3.3,��
2016/12/08,22:30,1.102,1.856,1.218,2.099,1.450,0.574,1.042,0.965,�k�k��,2.0,��
2016/12/08,22:40,1.103,1.856,1.217,2.102,1.451,0.574,1.044,0.967,�k�k��,2.9,��
2016/12/08,22:50,1.103,1.856,1.217,2.102,1.447,0.574,1.045,0.966,�k�k��,2.3,��
2016/12/08,23:00,1.102,1.854,1.217,2.100,1.446,0.574,1.044,0.965,�k�k��,3.4,��
2016/12/08,23:10,1.104,1.855,1.217,2.098,1.448,0.574,1.042,0.967,�k�k��,3.5,��
2016/12/08,23:20,1.105,1.856,1.220,2.101,1.448,0.574,1.044,0.967,�k�k��,4.2,��
2016/12/08,23:30,1.102,1.859,1.218,2.101,1.447,0.574,1.043,0.966,�k�k��,4.0,��
2016/12/08,23:40,1.104,1.855,1.220,2.104,1.449,0.575,1.044,0.966,�k�k��,3.7,��
2016/12/08,23:50,1.102,1.855,1.219,2.102,1.445,0.575,1.046,0.967,�k�k��,3.9,��
